This demonstration page uses our WeatherBlox Daily Observations layout. Learn more.

Left ArrowRight Arrow

Hourly Observations for February 11, 2016

Temp ( °F °C ) Dew Point ( °F °C ) Humidity (%) Winds ( mph kmh ) Pressure ( in mb ) Visibility ( mi km ) Precip ( " mm )
12:59 am 00:59 Partly Cloudy 30 -1.1 9 -12.8 41 41 W 20 31 30.00 1016 10 16 0.00 0.00
1:59 am 01:59 Mostly Clear 28 -2.2 8 -13.3 43 43 WNW 20 31 30.01 1016 10 16 0.00 0.00
2:59 am 02:59 Clear 28 -2.2 7 -13.9 41 41 WNW 18 30 30.03 1017 10 16 0.00 0.00
3:59 am 03:59 Clear 27 -2.8 8 -13.3 45 45 WNW 18 30 30.04 1017 10 16 0.00 0.00
4:59 am 04:59 Mostly Clear 26 -3.3 8 -13.3 46 46 W 15 24 30.07 1018 10 16 0.00 0.00
5:59 am 05:59 Clear 26 -3.3 7 -13.9 44 44 W 16 26 30.10 1019 10 16 0.00 0.00
6:59 am 06:59 Sunny 25 -3.9 7 -13.9 46 46 W 16 26 30.13 1020 10 16 0.00 0.00
7:59 am 07:59 Sunny 26 -3.3 7 -13.9 44 44 W 16 26 30.15 1021 10 16 0.00 0.00
8:59 am 08:59 Mostly Sunny 27 -2.8 6 -14.4 41 41 WNW 18 30 30.17 1022 10 16 0.00 0.00
9:59 am 09:59 Mostly Sunny 29 -1.7 4 -15.6 34 34 W 20 31 30.17 1022 10 16 0.00 0.00
10:59 am 10:59 Mostly Sunny 31 -0.6 2 -16.7 29 29 WNW 20 31 30.16 1021 10 16 0.00 0.00
11:59 am 11:59 Mostly Sunny 32 0 4 -15.6 30 30 W 15 24 30.15 1021 10 16 0.00 0.00
12:59 pm 12:59 Mostly Sunny 34 1.1 4 -15.6 28 28 WNW 16 26 30.14 1021 10 16 0.00 0.00
1:59 pm 13:59 Mostly Sunny 33 0.6 5 -15 30 30 WNW 17 28 30.13 1020 10 16 0.00 0.00
2:59 pm 14:59 Mostly Sunny 35 1.7 5 -15 28 28 W 14 22 30.14 1021 10 16 0.00 0.00
3:59 pm 15:59 Mostly Sunny 35 1.7 6 -14.4 29 29 NW 16 26 30.16 1021 10 16 0.00 0.00
4:59 pm 16:59 Sunny 35 1.7 5 -15 28 28 NW 17 28 30.17 1022 10 16 0.00 0.00
5:59 pm 17:59 Clear 32 0 7 -13.9 35 35 NNW 8 13 30.21 1023 10 16 0.00 0.00
6:59 pm 18:59 Clear 32 0 8 -13.3 36 36 NW 10 17 30.24 1024 10 16 0.00 0.00
7:59 pm 19:59 Clear 31 -0.6 9 -12.8 40 40 NW 8 13 30.27 1025 10 16 0.00 0.00
8:59 pm 20:59 Clear 31 -0.6 7 -13.9 36 36 NNW 13 20 30.29 1026 10 16 0.00 0.00
9:59 pm 21:59 Clear 31 -0.6 4 -15.6 31 31 N 14 22 30.31 1026 10 16 0.00 0.00
10:59 pm 22:59 Clear 30 -1.1 10 -12.2 43 43 N 8 13 30.32 1027 10 16 0.00 0.00
11:59 pm 23:59 Clear 28 -2.2 8 -13.3 43 43 N 12 19 30.34 1027 10 16 0.00 0.00

Powered by AerisWeather